Regional Weather Roundup
Issued by NWS Wakefield, VA

Home | Current Version | Previous Version | Graphics & Text | Print | Product List | Glossary On
Versions: 1 2 3 4 5 6 7 8 9 10 11 12 13 14 15 16 17 18 19 20 21 22 23 24 25 26 27 28 29 30 31 32 33 34 35 36 37 38 39 40 41 42 43 44 45 46 47 48 49 50
000
ASUS41 KAKQ 271210
RWRAKQ

REGIONAL WEATHER ROUNDUP
NATIONAL WEATHER SERVICE WAKEFIELD VA
800 AM EDT WED AUG 27 2014

Note: "fair" indicates few or no clouds below 12,000 feet with no
significant weather and/or obstructions to visibility. * = Denotes
station may not report precipitation (e.g., rain,snow,etc.),
thunder or fog.

VAZ042-051-052>054-056-271300-
NORTHERN VIRGINIA

CITY           SKY/WX    TMP DP  RH WIND       PRES   REMARKS
WASH NATIONAL  MOSUNNY   72  66  81 SE3       30.09S
DULLES         SUNNY     66  62  87 CALM      30.09R
FORT BELVOIR   FOG       64  63  94 E2        30.08F VSB 3/4
QUANTICO       MOSUNNY   66  62  87 W6        30.10R
FREDERICKSBRG* SUNNY     63  63 100 CALM      30.09S
STAFFORD*      SUNNY     62  62 100 CALM      30.14R FOG
WARRENTON      SUNNY     61  61 100 CALM      30.10R
CULPEPER*      SUNNY    N/A N/A N/A CALM      30.11R
MANASSAS*      FOG       61  59  94 CALM      30.09S VSB 1/2
LEESBURG*      SUNNY     64  64 100 CALM      30.10R
WINCHESTER     SUNNY     63  59  88 CALM      30.11R
$$

VAZ048-049-060>072-079>083-271300-
CENTRAL AND SOUTH CENTRAL VIRGINIA...AND NORTH CENTRAL NORTH CAROLINA

CITY           SKY/WX    TMP DP  RH WIND       PRES   REMARKS
RICHMOND       MOSUNNY   68  63  84 CALM      30.09R
CHESTERFIELD*  SUNNY    N/A N/A N/A NW5       30.10R
HANOVER        SUNNY     61  59  93 CALM      30.11R
TAPPAHANNOCK*  SUNNY     62  59  90 CALM      30.10R
CHARLOTTSVILLE SUNNY     62  59  90 CALM      30.11R
ORANGE*        SUNNY     63  59  88 CALM      30.11S
LOUISA*        SUNNY     63  63 100 CALM      30.10R
FARMVILLE*     SUNNY     61  59  94 CALM      30.09R
SOUTH HILL*    PTSUNNY   63  63 100 N6        30.14R
ROANOKE RAPIDS DRZL/FOG  63  63 100 N5        30.07S VSB<1/4
RALEIGH        MOSUNNY   64  60  87 N3        30.09R
$$

VAZ088>098-271300-
SOUTHEAST VIRGINIA

CITY           SKY/WX    TMP DP  RH WIND       PRES   REMARKS
NORFOLK        PTSUNNY   74  67  78 NE10      30.05R
VIRGINIA BEACH PTSUNNY   74  70  87 N12       30.04R
NORFOLK NAVAL  MOSUNNY   75  68  78 NE10      30.07R
WEST POINT*    CLOUDY    66  64  93 NW3       30.09R VSB<1/4
NEWPORT NEWS   SUNNY     72  67  84 N5        30.06S
LANGLEY AFB    SUNNY     72  72 100 NE7       30.05S
FORT EUSTIS    SUNNY     70  66  88 N3        30.05R
WILLIAMSBURG*  CLOUDY    66  64  94 CALM      30.08S VSB 3/4
FRANKLIN*      CLOUDY    63 N/A N/A CALM      30.07R VSB<1/4
WAKEFIELD      FOG       63  61  93 CALM      30.07S VSB<1/4
$$

VAZ020-022-025-037-045-271300-
WESTERN AND SOUTHWEST VIRGINIA

CITY           SKY/WX    TMP DP  RH WIND       PRES   REMARKS
STAUNTON*      FOG       54  53  95 CALM      30.16R VSB 1/4
HOT SPRINGS VA SUNNY     60  53  78 NW10      30.24S
LYNCHBURG      SUNNY     59  59 100 CALM      30.13S
DANVILLE       SUNNY     63  60  90 CALM      30.11R
MARTINSVILLE   SUNNY     57  57 100 CALM      30.15S
ROANOKE        MOSUNNY   60  58  92 CALM      30.17R
BLACKSBURG     FOG       55  55 100 CALM      30.21R VSB<1/4
DUBLIN*        FOG       52  52 100 CALM      30.21R VSB 1/4
MARION*        SUNNY    N/A N/A N/A CALM      30.22S
HILLSVILLE*    FOG       49  49 100 SW3       30.20S VSB 1/2
RICHLANDS*     SUNNY     61  56  83 CALM      30.20R
WISE*          SUNNY     63  57  82 CALM      30.21R
ABINGDON*      NOT AVBL
$$

MDZ021>025-VAZ099-100-271300-
SOUTHERN MARYLAND AND THE DELMARVA PENINSULA

CITY           SKY/WX    TMP DP  RH WIND       PRES   REMARKS
PATUXENT RIVER MOSUNNY   68  65  90 CALM      30.08R
BAY BRIDGE APT   N/A     70  68  94 CALM      30.08S
LEONARDTOWN    SUNNY     64  63  94 CALM      30.10R
DOVER          SUNNY     65  65 100 S5        30.07S
GEORGETOWN     CLOUDY    61  60  97 MISG      30.09S
EASTON         MOSUNNY   64  64 100 CALM      30.12S
CAMBRIDGE      MOSUNNY   63  61  94 CALM      30.08S
SALISBURY      FOG       64  62  93 CALM      30.08R VSB 1/4
OCEAN CITY     SUNNY     67  66  97 NW5       30.07S
WALLOPS ISLAND MOSUNNY   68  66  93 N6        30.07S
ACCOMACK*      NOT AVBL
$$

NCZ012>017-030>032-271300-
EASTERN NORTH CAROLINA

CITY           SKY/WX    TMP DP  RH WIND       PRES   REMARKS
ELIZABETH CITY PTSUNNY   72  70  93 N10       30.03S
AHOSKIE*       CLOUDY    62  61  97 N5        30.06S VSB 1/2
EDENTON*       CLOUDY    68  67  98 N6        30.04R FOG
CURRITUCK*     CLOUDY    74  70  87 N8        30.04S
KILL DEVIL HLS PTSUNNY   75  72  91 N8G16     30.00R
MANTEO         CLOUDY    74  72  92 N12G18    30.01R
CAPE HATTERAS  CLOUDY    76  75  97 NE14G23   29.97R
GOLDSBORO      CLOUDY    66  66 100 N7        30.03S FOG
WASHINGTON     CLOUDY    69  67  95 N7        30.03S
GREENVILLE     CLOUDY    68  68 100 N6        30.06S FOG
NEW BERN       CLOUDY    71  67  87 N10       30.03R
WILMINGTON     SUNNY     69  65  86 N9        30.00S
$$

VAZ048-271300-
ELSEWHERE

CITY           SKY/WX    TMP DP  RH WIND       PRES   REMARKS
HARRISBURG PA  SUNNY     69  63  81 CALM      30.07R
BALTIMORE      SUNNY     67  63  87 CALM      30.07S
ANNAPOLIS      SUNNY     70  65  84 SW3       30.08R
ANDREWS AFB    SUNNY     66  65  99 S3        30.09R
WILMINGTON DE  SUNNY     69  63  81 CALM      30.08R
PHILADELPHIA   MOSUNNY   70  63  78 S5        30.07S
WILDWOOD NJ*   SUNNY     66  61  82 CALM      30.09S
ATLANTIC CITY  SUNNY     67  64  90 CALM      30.08S
HENDERSON NC   SUNNY     62  61  96 NW5       30.09S
GREENSBORO     MOSUNNY   64  59  83 NE5       30.11R
ROCKY MOUNT    CLOUDY    63  62  97 N6        30.06R
FAYETTEVILLE   SUNNY     67  61  81 N10       30.05R
CHARLOTTE      SUNNY     63  60  90 N5        30.11R
$$

VAZ100-271300-
MARINE

STATION/POSITION TIME  TEMP    WIND        PRES    WAVE   SWELL
                       AIR SEA DIR/SP/G            HT/PER HT/PER
                 (UTC) (F)     (DEG/KT/KT) (MB)    (FT/S) (FT/S)
44066 TX TWR #4  1200   73 72   CALM  /  2 1018.1S   4/13   3/13
CAPE MAY NJ      1200   72 79  100/  1/  1 1018.0F
LEWES DE         1200   67 76  250/  1/  2 1018.2F
15NM E FENWICK I 1200   73 73              1018.0R   4/ 7
OCEAN-CITY-INLET 1200   69 75  360/  4/  5 1017.8R
WACHAPREAGUE VA  1200   71 76   10/  5/  7 1017.8R
THOMAS POINT MD  1200   71 78  250/  7/  9 1019.5R
GOOSES REEF MD   1200   73     250/  4/  6 1019.0S
COVE POINT MD    1200   72     280/  4/  5 1018.5R
SOLOMONS ISLAND  1200      79                N/A
BISHOPS HEAD MD  1200   71 75  350/  2/  3 1018.0R
PINEY POINT MD   1200          320/  6/  7   N/A
POTOMAC MD       1200   73     350/  6/  8 1017.7R
CAMBRIDGE MD     1200   68 78  110/  1/  2 1018.3S
LEWISETTA VA     1200   69 78  300/  4/  4 1018.1R
RAPPAHANNOCK LGT 1200           30/  9/ 11 1018.3S
STINGRAY PT      1200   74      40/  6/  8   N/A
YORK RVR RNG VA  1200   73      20/ 10/ 11 1017.4R
YORKTOWN VA      1200   70 79  350/  9/ 10 1017.7S
JAMESTOWN VA     1200   66      50/  4/  6   N/A
DOMINION TERM VA 1200   70     360/  5/  7 1017.7S
KIPTOPEKE VA     1200      80   30/  4/  7   N/A
CHES BAY BRIDGE  1200   73 77   20/ 12/ 13 1017.0S
CAPE HENRY VA    1200   72      10/ 13/ 15 1016.3R
CHESAPEAKE LGHT  1100   73      30/ 16/ 18 1017.5R
WILLOUBY STN VA  1200   73      30/ 12/ 13 1016.3R
S CRANEY ISL VA  1200          360/  9/ 11 1017.2R
CAPE HENRY BUOY  1200      76                N/A     5/12   2/12
1ST LANDING BUOY 1200   74      20/ 12/ 16 1017.2R
CAPE CHARLES BUO 1200      76                N/A     4/11   5/11
OFFSHORE WE BUOY 1200      75                N/A     6/11   5/11
64NM E OF VA BCH 1200   77 78   30/ 16/ 17 1015.7R   7/11   5/11
DUCK PIER NC     1200   74 76   10/ 17/ 19 1015.6R
44056 DUCK FRF   1200                        N/A     5/12   3/12
OREGON INLET NC  1200   76 77   10/ 11/ 16 1015.5R
HATTERAS NC      1200   76 78   20/ 16/ 20 1015.0F
DIAMOND SHLS NC  1200   79     360/ 21/ 25 1013.2R   8/ 8   5/13
CAPE LOOKOUT NC  1100   75      10/ 11/ 14 1014.4R
$$



USA.gov is the U.S. government's official web portal to all federal, state and local government web resources and services.